Location: Azul
(36.7830°S, 59.8500°W)
Time: 09:19:01
(UTC-03:00)

ISS - Pass Details

Date: 06 December 2019
Orbit: 411 x 421 km, 51.6° (Epoch: 11 December)

Event Time Altitude Azimuth Distance (km) Brightness Sun altitude
Exits shadow 02:40:46 24° 198° (SSW) 938 -1.6 -25.3°
Drops below altitude 10° 02:43:13 10° 154° (SSE) 1,527 0.1 -25.0°
Sets 02:45:35 0° 139° (SE) 2,395 1.4 -24.8°
